Weather reports worldwide

Advertisment
Estepona, Spain (8463): temperature & dewpoint: 17.09.2018 03:00:00 - 23.09.2018 03:00:00 (CEST)Estepona, Spain (8463): wind speed & gusts: 17.09.2018 03:00:00 - 23.09.2018 03:00:00 (CEST)Estepona, Spain (8463): wind direction: 17.09.2018 03:00:00 - 23.09.2018 03:00:00 (CEST)Estepona, Spain (8463): reduced air pressure: 17.09.2018 03:00:00 - 23.09.2018 03:00:00 (CEST)Estepona, Spain (8463): visibility: 17.09.2018 03:00:00 - 23.09.2018 03:00:00 (CEST)Estepona, Spain (8463): sunshine duration: 17.09.2018 03:00:00 - 23.09.2018 03:00:00 (CEST)Estepona, Spain (8463): precipitation: 17.09.2018 03:00:00 - 23.09.2018 03:00:00 (CEST)
Date & Time tt [°C] td [°C] ff [km/h] ff [kn] fx [km/h] fx [kn] dd ppp [hPa] vv [km] sd [min] rr [mm]
23.09.2018 03:00:00 - - - - - - - - - - -
23.09.2018 02:00:00 22,7 10,8 8 4 16 9 NE 1023,2 20 0 -
23.09.2018 01:00:00 23,1 11,2 8 4 20 11 NE 1023,7 20 0 0,0
23.09.2018 00:00:00 23,1 11,4 9 5 17 9 NE 1023,7 20 0 0,0
22.09.2018 23:00:00 23,6 11,9 7 4 22 12 ENE 1023,5 20 0 0,0
22.09.2018 22:00:00 23,6 13,8 8 4 23 13 NE 1023,1 20 0 0,0
22.09.2018 21:00:00 24,0 16,0 8 4 26 14 NE 1022,4 20 0 0,0
22.09.2018 20:00:00 25,4 16,0 16 8 29 15 ENE 1022,2 20 41 -
22.09.2018 19:00:00 26,6 16,0 16 9 33 18 E 1022,0 20 60 0,0
22.09.2018 18:00:00 27,9 18,0 9 5 27 15 ENE 1022,0 20 60 0,0
22.09.2018 17:00:00 28,5 17,7 12 7 27 14 ENE 1022,1 20 60 0,0
22.09.2018 16:00:00 28,7 20,5 9 5 29 15 ENE 1022,7 20 60 0,0
22.09.2018 15:00:00 27,2 19,8 18 10 29 15 ENE 1023,1 19 60 0,0
22.09.2018 14:00:00 27,1 20,0 16 9 29 16 E 1023,5 19 60 -
22.09.2018 13:00:00 27,0 19,8 16 8 25 13 E 1023,5 18 60 0,0
22.09.2018 12:00:00 26,2 19,3 18 10 31 17 E 1023,3 20 60 0,0
22.09.2018 11:00:00 25,2 19,1 15 8 26 14 E 1022,9 20 60 0,0
22.09.2018 10:00:00 23,9 16,9 11 6 17 9 E 1022,6 15 60 0,0
22.09.2018 09:00:00 19,6 15,1 6 3 12 6 NE 1021,9 20 33 0,0
22.09.2018 08:00:00 18,6 14,0 3 2 6 4 NNE 1021,5 20 0 -
22.09.2018 07:00:00 19,2 15,3 4 2 5 3 NE 1020,8 20 0 0,0
22.09.2018 06:00:00 19,6 15,6 3 1 5 3 W 1020,5 20 0 0,0
22.09.2018 05:00:00 19,8 15,9 2 1 6 4 WNW 1020,4 20 0 0,0
22.09.2018 04:00:00 20,0 16,2 2 1 5 3 NW 1020,6 20 0 0,0
22.09.2018 03:00:00 20,2 17,1 3 2 6 3 WNW 1021,0 20 0 0,0
22.09.2018 02:00:00 20,4 17,2 2 1 5 3 WNW 1021,2 20 0 -
22.09.2018 01:00:00 21,5 18,3 0 0 3 2 N 1021,1 8 0 0,0
22.09.2018 00:00:00 21,8 18,4 2 1 5 3 NNE 1021,1 15 0 0,0
21.09.2018 23:00:00 22,4 19,0 2 1 6 3 W 1021,0 11 0 0,0
21.09.2018 22:00:00 23,3 19,6 2 1 10 5 S 1020,5 6 0 0,0
21.09.2018 21:00:00 23,8 19,5 7 4 15 8 E 1019,6 14 0 0,0
21.09.2018 20:00:00 24,7 19,6 7 4 11 6 E 1019,5 15 44 -
21.09.2018 19:00:00 26,6 20,0 6 4 11 6 E 1019,1 19 60 0,0
21.09.2018 18:00:00 27,3 20,1 7 4 15 8 E 1019,0 15 60 0,0
21.09.2018 17:00:00 27,8 20,4 9 5 14 8 E 1019,4 15 60 0,0
21.09.2018 16:00:00 28,4 20,1 8 4 13 7 ESE 1019,7 15 60 0,0
21.09.2018 15:00:00 28,4 20,1 6 3 13 7 SE 1020,0 18 60 0,0
21.09.2018 14:00:00 28,5 20,3 5 3 13 7 S 1020,5 20 60 -
21.09.2018 13:00:00 27,7 19,8 6 3 11 6 SE 1020,7 19 60 0,0
21.09.2018 12:00:00 26,5 19,6 4 2 8 4 SE 1020,9 20 60 0,0
21.09.2018 11:00:00 24,7 20,0 5 3 8 4 SSW 1020,5 18 60 0,0
21.09.2018 10:00:00 22,8 19,3 5 3 7 4 SW 1020,1 20 60 0,0
21.09.2018 09:00:00 20,4 17,2 1 1 3 2 NE 1019,9 18 18 0,0
21.09.2018 08:00:00 20,0 16,6 1 1 3 2 SE 1019,3 20 0 -
21.09.2018 07:00:00 20,5 17,1 2 1 6 3 WNW 1019,0 20 0 0,0
21.09.2018 06:00:00 20,6 17,2 4 2 6 3 W 1018,9 20 0 0,0
21.09.2018 05:00:00 21,2 17,6 2 1 4 2 SW 1018,7 17 0 0,0
21.09.2018 04:00:00 21,7 17,7 2 1 5 3 WSW 1018,9 18 0 0,0
21.09.2018 03:00:00 22,5 17,6 3 2 7 4 WSW 1019,4 20 0 0,0
21.09.2018 02:00:00 22,6 16,1 2 1 12 7 NNW 1019,8 20 0 -
21.09.2018 01:00:00 22,0 16,7 6 3 12 6 NNE 1020,1 20 0 0,0
21.09.2018 00:00:00 22,8 17,3 5 3 12 7 ENE 1020,1 18 0 0,0
20.09.2018 23:00:00 22,3 17,6 4 2 12 6 NE 1020,0 20 0 0,0
20.09.2018 22:00:00 23,1 19,1 8 4 14 7 ENE 1019,8 16 0 0,0
20.09.2018 21:00:00 23,8 19,7 7 4 16 8 ENE 1019,4 15 0 0,0
20.09.2018 20:00:00 24,6 19,8 9 5 14 8 E 1019,4 16 46 -
20.09.2018 19:00:00 25,2 19,6 9 5 16 9 E 1019,4 16 48 0,0
20.09.2018 18:00:00 26,6 20,2 11 6 19 10 E 1019,6 18 60 0,0
20.09.2018 17:00:00 - - - - - - - - - - -
20.09.2018 16:00:00 27,6 20,4 11 6 20 11 E 1020,5 13 60 0,0
20.09.2018 15:00:00 27,8 20,4 12 7 20 11 E 1021,0 19 60 0,0
20.09.2018 14:00:00 27,8 20,6 12 6 22 12 E 1021,5 18 60 -
20.09.2018 13:00:00 27,9 20,2 12 6 19 11 E 1021,9 17 60 0,0
20.09.2018 12:00:00 27,0 19,3 14 8 22 12 E 1022,0 16 60 0,0
20.09.2018 11:00:00 26,0 19,1 10 5 16 9 E 1021,8 16 23 0,0
20.09.2018 10:00:00 24,9 18,8 9 5 15 8 ENE 1021,5 16 7 0,0
20.09.2018 09:00:00 23,9 18,3 5 3 17 9 ENE 1021,2 17 0 0,0
20.09.2018 08:00:00 23,6 17,6 7 4 15 8 NE 1020,7 17 0 -
20.09.2018 07:00:00 23,2 17,0 8 4 16 9 NE 1020,7 18 0 0,0
20.09.2018 06:00:00 22,9 16,9 8 4 16 8 NE 1020,7 20 0 0,0
20.09.2018 05:00:00 23,0 16,8 8 4 14 8 NE 1020,8 17 0 0,0
20.09.2018 04:00:00 23,0 16,8 8 4 14 7 NNE 1021,1 17 0 0,0
20.09.2018 03:00:00 23,0 16,8 6 3 17 9 NE 1021,5 15 0 0,0
20.09.2018 02:00:00 23,0 17,0 6 4 19 11 NE 1021,7 17 0 -
20.09.2018 01:00:00 23,0 17,7 9 5 16 9 NE 1021,7 16 0 0,0
20.09.2018 00:00:00 - - - - - - - - - - -
19.09.2018 23:00:00 22,7 19,3 6 3 12 6 NE 1021,8 14 0 0,0
19.09.2018 22:00:00 23,3 19,8 6 3 12 7 ENE 1021,6 10 0 0,0
19.09.2018 21:00:00 24,0 20,1 9 5 15 8 E 1021,3 9 0 0,0
19.09.2018 20:00:00 24,6 19,8 9 5 14 8 ENE 1020,9 11 48 -
19.09.2018 19:00:00 25,8 20,1 8 4 14 8 E 1020,3 11 60 0,0
19.09.2018 18:00:00 26,9 20,0 6 4 16 8 E 1020,1 13 60 0,0
19.09.2018 17:00:00 27,5 19,6 10 5 16 9 E 1020,2 13 60 0,0
19.09.2018 16:00:00 28,0 19,5 10 5 16 8 ESE 1020,8 15 60 0,0
19.09.2018 15:00:00 27,6 19,6 8 4 16 9 E 1021,3 13 60 0,0
19.09.2018 14:00:00 27,4 20,0 9 5 16 9 E 1021,5 12 60 -
19.09.2018 13:00:00 27,8 20,6 10 6 17 9 E 1021,5 11 60 0,0
19.09.2018 12:00:00 27,5 21,1 8 4 14 7 ESE 1021,5 12 60 0,0
19.09.2018 11:00:00 25,2 21,3 8 4 13 7 ESE 1021,0 13 56 0,0
19.09.2018 10:00:00 23,2 20,7 4 2 6 4 SE 1020,7 7 0 0,0
19.09.2018 09:00:00 22,8 20,3 3 1 7 4 WSW 1020,0 6 0 0,0
19.09.2018 08:00:00 22,6 20,0 2 1 5 3 S 1019,7 3,9 0 -
19.09.2018 07:00:00 22,7 20,1 3 2 14 8 SSE 1019,4 4,0 0 0,0
19.09.2018 06:00:00 21,8 19,1 5 3 10 5 NE 1019,3 12 0 0,0
19.09.2018 05:00:00 21,6 19,0 5 3 9 5 NE 1019,0 11 0 0,0
19.09.2018 04:00:00 21,8 19,1 1 1 5 3 SE 1018,7 9 0 0,0
19.09.2018 03:00:00 22,1 19,5 3 1 4 2 ENE 1019,0 10 0 0,0
19.09.2018 02:00:00 22,4 19,6 2 1 4 2 E 1018,9 5 0 -
19.09.2018 01:00:00 22,3 19,3 4 2 5 3 SW 1019,0 6 0 0,0
19.09.2018 00:00:00 22,9 19,6 2 1 4 2 S 1019,2 4,9 0 0,0
18.09.2018 23:00:00 23,1 19,5 2 1 5 3 SSW 1019,2 4,6 0 0,0
18.09.2018 22:00:00 23,7 19,6 3 1 5 3 SW 1018,6 7 0 0,0
18.09.2018 21:00:00 24,7 20,0 3 2 8 4 SW 1017,8 10 0 0,0
18.09.2018 20:00:00 26,2 20,5 3 2 8 4 SSE 1017,5 10 48 -
18.09.2018 19:00:00 27,9 20,2 4 2 9 5 S 1017,0 12 60 0,0
18.09.2018 18:00:00 28,5 20,3 4 2 10 6 SSW 1016,6 13 60 0,0
18.09.2018 17:00:00 28,3 20,1 5 3 10 5 SSE 1016,6 12 60 0,0
18.09.2018 16:00:00 29,3 20,2 4 2 10 6 S 1017,1 12 60 0,0
18.09.2018 15:00:00 29,2 19,8 5 3 10 5 SSE 1017,5 15 60 0,0
18.09.2018 14:00:00 28,8 20,0 5 3 10 6 S 1017,7 13 60 -
18.09.2018 13:00:00 28,3 19,8 4 2 10 6 S 1017,9 14 60 0,0
18.09.2018 12:00:00 27,2 19,8 4 2 8 5 S 1018,1 16 60 0,0
18.09.2018 11:00:00 25,7 19,6 5 3 8 4 SSW 1017,7 12 60 0,0
18.09.2018 10:00:00 23,6 19,8 2 1 5 3 S 1017,0 8 60 0,0
18.09.2018 09:00:00 22,1 18,9 1 1 5 3 SW 1017,0 8 17 0,0
18.09.2018 08:00:00 21,6 18,2 2 1 6 3 W 1016,6 5 0 -
18.09.2018 07:00:00 21,8 18,2 1 1 6 3 WSW 1016,2 4,3 0 0,0
18.09.2018 06:00:00 22,3 18,3 2 1 9 5 W 1015,9 8 0 0,0
18.09.2018 05:00:00 22,6 18,8 4 2 9 5 NNE 1015,7 18 0 0,0
18.09.2018 04:00:00 23,0 19,0 3 2 13 7 NE 1015,9 16 0 0,0
18.09.2018 03:00:00 23,2 19,1 6 3 12 6 NE 1016,1 17 0 0,0
18.09.2018 02:00:00 23,2 19,3 4 2 10 5 NE 1016,4 17 0 -
18.09.2018 01:00:00 23,7 19,6 5 3 14 8 NE 1016,4 16 0 0,0
18.09.2018 00:00:00 24,1 19,8 6 3 19 11 NE 1016,7 17 0 0,0
17.09.2018 23:00:00 24,3 20,2 6 4 17 9 ENE 1016,8 11 0 0,0
17.09.2018 22:00:00 24,2 20,1 11 6 22 12 ENE 1016,3 9 0 0,0
17.09.2018 21:00:00 24,5 20,0 11 6 19 10 ENE 1015,8 10 0 0,0
17.09.2018 20:00:00 25,2 20,0 13 7 21 11 ENE 1015,8 10 0 -
17.09.2018 19:00:00 25,8 19,9 6 3 23 12 ENE 1015,8 14 17 0,0
17.09.2018 18:00:00 26,6 19,7 14 7 24 13 ENE 1015,9 19 58 0,0
17.09.2018 17:00:00 27,6 19,6 15 8 22 12 ENE 1016,2 18 60 0,0
17.09.2018 16:00:00 27,9 19,7 16 9 24 13 ENE 1016,8 17 24 0,0
17.09.2018 15:00:00 27,4 20,3 13 7 24 13 ENE 1017,4 20 13 0,0
17.09.2018 14:00:00 26,1 19,7 14 7 29 15 ENE 1018,1 20 26 -
17.09.2018 13:00:00 27,1 19,7 18 10 29 15 ENE 1018,6 16 24 0,0
17.09.2018 12:00:00 25,9 19,1 18 10 26 14 ENE 1018,9 15 13 0,0
17.09.2018 11:00:00 24,6 19,2 10 6 24 13 ENE 1018,8 13 0 0,0
17.09.2018 10:00:00 25,1 18,8 9 5 18 10 ENE 1018,4 12 2 0,0
17.09.2018 09:00:00 24,4 18,1 6 3 15 8 NE 1018,5 20 0 0,0
17.09.2018 08:00:00 23,7 17,9 6 3 16 9 NE 1017,8 20 0 -
17.09.2018 07:00:00 23,8 17,5 6 4 20 11 NE 1016,9 20 0 0,0
17.09.2018 06:00:00 23,9 18,1 10 5 24 13 NE 1017,3 20 0 0,0
17.09.2018 05:00:00 24,1 18,8 8 4 21 11 NE 1018,3 20 0 0,0
17.09.2018 04:00:00 24,2 19,1 6 4 19 11 ENE 1019,5 16 0 0,0
17.09.2018 03:00:00 24,3 18,9 8 4 17 9 ENE 1019,3 15 0 0,0

tt = temperature
td = dewpoint
ff = wind speed
fx = gusts
dd = wind direction
ppp = reduced air pressure
vv = visibility
sd = sunshine duration
rr = precipitation

Next stations